This is the latest recevied weather packets stored in our database for station/object E24QND-2. If no packets are shown the sender has not sent any weather packets the latest 10 day(s).
| Time | Temp. | Humidity | Pressure | Rain* | Wind** | Luminosity | Snow |
|---|---|---|---|---|---|---|---|
| 1777843449 | 26.67° C | 99% | - | - | - | 0 W/m² | - |
| 1777842224 | 26.67° C | 99% | - | - | - | 0 W/m² | - |
| 1777840999 | 27.22° C | 99% | - | - | - | 0 W/m² | - |
| 1777839775 | 27.22° C | 99% | - | - | - | 0 W/m² | - |
| 1777838551 | 27.22° C | 99% | - | - | - | 0 W/m² | - |
| 1777837326 | 26.67° C | 99% | - | - | - | 0 W/m² | - |
| 1777836101 | 26.67° C | 99% | - | - | - | 0 W/m² | - |
| 1777834877 | 26.67° C | 99% | - | - | - | 0 W/m² | - |
| 1777833652 | 26.67° C | 99% | - | - | - | 0 W/m² | - |
| 1777832427 | 26.67° C | 99% | - | - | - | 0 W/m² | - |
| 1777831203 | 26.11° C | 99% | - | - | - | 0 W/m² | - |
| 1777829978 | 27.22° C | 99% | - | - | - | 0 W/m² | - |
| 1777828754 | 27.22° C | 99% | - | - | - | 0 W/m² | - |
| 1777827529 | 27.22° C | 86% | - | - | - | 0 W/m² | - |
| 1777826305 | 27.22° C | 63% | - | - | - | 0 W/m² | - |
| 1777825080 | 27.78° C | 62% | - | - | - | 0 W/m² | - |
| 1777823856 | 27.22° C | 66% | - | - | - | 0 W/m² | - |
| 1777822631 | 27.78° C | 37% | - | - | - | 0 W/m² | - |
| 1777821406 | 28.89° C | 29% | - | - | - | 0 W/m² | - |
| 1777820182 | 28.33° C | 27% | - | - | - | 0 W/m² | - |
| 1777818957 | 28.89° C | 23% | - | - | - | 0 W/m² | - |
| 1777817733 | 28.89° C | 15% | - | - | - | 0 W/m² | - |
| 1777816508 | 29.44° C | 9% | - | - | - | 0 W/m² | - |
| 1777815284 | 29.44° C | 11% | - | - | - | 0 W/m² | - |
| 1777814059 | 28.89° C | 16% | - | - | - | 0 W/m² | - |
* Rain since midnight (hover to see other rain measurements)
** Current wind speed in m/s (hover to see current wind gust speed)